Year,Month,Day,Hour,Minute,Value (Times are PST for temperature in C)
2011,04,08,00,00,2.30
2011,04,08,00,01,2.30
2011,04,08,00,02,2.30
2011,04,08,00,03,2.20
2011,04,08,00,04,2.20
2011,04,08,00,05,2.20
2011,04,08,00,06,2.20
2011,04,08,00,07,2.10
2011,04,08,00,08,2.10
2011,04,08,00,09,2.10
2011,04,08,00,10,2.10
2011,04,08,00,11,2.10
2011,04,08,00,12,2.10
2011,04,08,00,13,2.00
2011,04,08,00,14,2.00
2011,04,08,00,15,2.00
2011,04,08,00,16,1.90
2011,04,08,00,17,1.90
2011,04,08,00,18,1.90
2011,04,08,00,19,1.80
2011,04,08,00,20,1.80
2011,04,08,00,21,1.80
2011,04,08,00,22,1.70
2011,04,08,00,23,1.70
2011,04,08,00,24,1.70
2011,04,08,00,25,1.70
2011,04,08,00,26,1.70
2011,04,08,00,27,1.70
2011,04,08,00,28,1.70
2011,04,08,00,29,1.60
2011,04,08,00,30,1.60
2011,04,08,00,31,1.60
2011,04,08,00,32,1.60
2011,04,08,00,33,1.60
2011,04,08,00,34,1.60
2011,04,08,00,35,1.60
2011,04,08,00,36,1.60
2011,04,08,00,37,1.60
2011,04,08,00,38,1.60
2011,04,08,00,39,1.60
2011,04,08,00,40,1.50
2011,04,08,00,41,1.50
2011,04,08,00,42,1.50
2011,04,08,00,43,1.40
2011,04,08,00,44,1.40
2011,04,08,00,45,1.40
2011,04,08,00,46,1.40
2011,04,08,00,47,1.30
2011,04,08,00,48,1.30
2011,04,08,00,49,1.30
2011,04,08,00,50,1.30
2011,04,08,00,51,1.30
2011,04,08,00,52,1.30
2011,04,08,00,53,1.30
2011,04,08,00,54,1.20
2011,04,08,00,55,1.20
2011,04,08,00,56,1.20
2011,04,08,00,57,1.20
2011,04,08,00,58,1.20
2011,04,08,00,59,1.20
2011,04,08,01,00,1.20
2011,04,08,01,01,1.10
2011,04,08,01,02,1.10
2011,04,08,01,03,1.10
2011,04,08,01,04,1.10
2011,04,08,01,05,1.10
2011,04,08,01,06,1.10
2011,04,08,01,07,1.10
2011,04,08,01,08,1.10
2011,04,08,01,09,1.10
2011,04,08,01,10,1.10
2011,04,08,01,11,1.10
2011,04,08,01,12,1.10
2011,04,08,01,13,1.10
2011,04,08,01,14,1.10
2011,04,08,01,15,1.10
2011,04,08,01,16,1.10
2011,04,08,01,17,1.10
2011,04,08,01,18,1.00
2011,04,08,01,19,1.00
2011,04,08,01,20,1.00
2011,04,08,01,21,1.00
2011,04,08,01,22,1.00
2011,04,08,01,23,0.90
2011,04,08,01,24,0.90
2011,04,08,01,25,0.90
2011,04,08,01,26,0.80
2011,04,08,01,27,0.80
2011,04,08,01,28,0.80
2011,04,08,01,29,0.80
2011,04,08,01,30,0.80
2011,04,08,01,31,0.80
2011,04,08,01,32,0.80
2011,04,08,01,33,0.70
2011,04,08,01,34,0.70
2011,04,08,01,35,0.70
2011,04,08,01,36,0.70
2011,04,08,01,37,0.70
2011,04,08,01,38,0.70
2011,04,08,01,39,0.60
2011,04,08,01,40,0.60
2011,04,08,01,41,0.60
2011,04,08,01,42,0.60
2011,04,08,01,43,0.50
2011,04,08,01,44,0.50
2011,04,08,01,45,0.50
2011,04,08,01,46,0.50
2011,04,08,01,47,0.40
2011,04,08,01,48,0.40
2011,04,08,01,49,0.40
2011,04,08,01,50,0.40
2011,04,08,01,51,0.40
2011,04,08,01,52,0.40
2011,04,08,01,53,0.40
2011,04,08,01,54,0.40
2011,04,08,01,55,0.40
2011,04,08,01,56,0.40
2011,04,08,01,57,0.30
2011,04,08,01,58,0.30
2011,04,08,01,59,0.30
2011,04,08,02,00,0.30
2011,04,08,02,01,0.30
2011,04,08,02,02,0.30
2011,04,08,02,03,0.20
2011,04,08,02,04,0.20
2011,04,08,02,05,0.20
2011,04,08,02,06,0.20
2011,04,08,02,07,0.20
2011,04,08,02,08,0.20
2011,04,08,02,09,0.20
2011,04,08,02,10,0.10
2011,04,08,02,11,0.10
2011,04,08,02,12,0.10
2011,04,08,02,13,0.10
2011,04,08,02,14,0.10
2011,04,08,02,15,0.10
2011,04,08,02,16,0.10
2011,04,08,02,17,0.10
2011,04,08,02,18,0.10
2011,04,08,02,19,0.10
2011,04,08,02,20,0.10
2011,04,08,02,21,0.10
2011,04,08,02,22,0.10
2011,04,08,02,23,0.00
2011,04,08,02,24,0.00
2011,04,08,02,25,0.00
2011,04,08,02,26,0.00
2011,04,08,02,27,-0.10
2011,04,08,02,28,-0.10
2011,04,08,02,29,-0.10
2011,04,08,02,30,-0.10
2011,04,08,02,31,-0.10
2011,04,08,02,32,-0.20
2011,04,08,02,33,-0.20
2011,04,08,02,34,-0.20
2011,04,08,02,35,-0.20
2011,04,08,02,36,-0.20
2011,04,08,02,37,-0.20
2011,04,08,02,38,-0.20
2011,04,08,02,39,-0.20
2011,04,08,02,40,-0.20
2011,04,08,02,41,-0.30
2011,04,08,02,42,-0.30
2011,04,08,02,43,-0.30
2011,04,08,02,44,-0.30
2011,04,08,02,45,-0.30
2011,04,08,02,46,-0.30
2011,04,08,02,47,-0.30
2011,04,08,02,48,-0.30
2011,04,08,02,49,-0.30
2011,04,08,02,50,-0.30
2011,04,08,02,51,-0.30
2011,04,08,02,52,-0.30
2011,04,08,02,53,-0.30
2011,04,08,02,54,-0.30
2011,04,08,02,55,-0.30
2011,04,08,02,56,-0.30
2011,04,08,02,57,-0.40
2011,04,08,02,58,-0.40
2011,04,08,02,59,-0.40
2011,04,08,03,00,-0.40
2011,04,08,03,01,-0.40
2011,04,08,03,02,-0.40
2011,04,08,03,03,-0.40
2011,04,08,03,04,-0.40
2011,04,08,03,05,-0.50
2011,04,08,03,06,-0.50
2011,04,08,03,07,-0.50
2011,04,08,03,08,-0.50
2011,04,08,03,09,-0.50
2011,04,08,03,10,-0.50
2011,04,08,03,11,-0.50
2011,04,08,03,12,-0.50
2011,04,08,03,13,-0.50
2011,04,08,03,14,-0.50
2011,04,08,03,15,-0.50
2011,04,08,03,16,-0.50
2011,04,08,03,17,-0.50
2011,04,08,03,18,-0.50
2011,04,08,03,19,-0.50
2011,04,08,03,20,-0.50
2011,04,08,03,21,-0.50
2011,04,08,03,22,-0.60
2011,04,08,03,23,-0.60
2011,04,08,03,24,-0.60
2011,04,08,03,25,-0.60
2011,04,08,03,26,-0.60
2011,04,08,03,27,-0.60
2011,04,08,03,28,-0.60
2011,04,08,03,29,-0.60
2011,04,08,03,30,-0.60
2011,04,08,03,31,-0.60
2011,04,08,03,32,-0.50
2011,04,08,03,33,-0.50
2011,04,08,03,34,-0.50
2011,04,08,03,35,-0.50
2011,04,08,03,36,-0.50
2011,04,08,03,37,-0.60
2011,04,08,03,38,-0.60
2011,04,08,03,39,-0.60
2011,04,08,03,40,-0.60
2011,04,08,03,41,-0.70
2011,04,08,03,42,-0.70
2011,04,08,03,43,-0.70
2011,04,08,03,44,-0.70
2011,04,08,03,45,-0.70
2011,04,08,03,46,-0.70
2011,04,08,03,47,-0.70
2011,04,08,03,48,-0.80
2011,04,08,03,49,-0.80
2011,04,08,03,50,-0.80
2011,04,08,03,51,-0.80
2011,04,08,03,52,-0.80
2011,04,08,03,53,-0.80
2011,04,08,03,54,-0.80
2011,04,08,03,55,-0.90
2011,04,08,03,56,-0.90
2011,04,08,03,57,-0.90
2011,04,08,03,58,-0.90
2011,04,08,03,59,-0.90
2011,04,08,04,00,-0.90
2011,04,08,04,01,-0.90
2011,04,08,04,02,-0.90
2011,04,08,04,03,-0.90
2011,04,08,04,04,-0.90
2011,04,08,04,05,-0.90
2011,04,08,04,06,-0.90
2011,04,08,04,07,-0.90
2011,04,08,04,08,-1.00
2011,04,08,04,09,-1.00
2011,04,08,04,10,-1.00
2011,04,08,04,11,-1.00
2011,04,08,04,12,-1.00
2011,04,08,04,13,-0.90
2011,04,08,04,14,-1.00
2011,04,08,04,15,-0.90
2011,04,08,04,16,-0.90
2011,04,08,04,17,-1.00
2011,04,08,04,18,-1.00
2011,04,08,04,19,-1.00
2011,04,08,04,20,-1.00
2011,04,08,04,21,-1.00
2011,04,08,04,22,-1.00
2011,04,08,04,23,-1.00
2011,04,08,04,24,-1.00
2011,04,08,04,25,-1.00
2011,04,08,04,26,-1.10
2011,04,08,04,27,-1.10
2011,04,08,04,28,-1.10
2011,04,08,04,29,-1.10
2011,04,08,04,30,-1.10
2011,04,08,04,31,-1.10
2011,04,08,04,32,-1.20
2011,04,08,04,33,-1.20
2011,04,08,04,34,-1.20
2011,04,08,04,35,-1.20
2011,04,08,04,36,-1.20
2011,04,08,04,37,-1.20
2011,04,08,04,38,-1.20
2011,04,08,04,39,-1.20
2011,04,08,04,40,-1.20
2011,04,08,04,41,-1.20
2011,04,08,04,42,-1.20
2011,04,08,04,43,-1.20
2011,04,08,04,44,-1.20
2011,04,08,04,45,-1.20
2011,04,08,04,46,-1.20
2011,04,08,04,47,-1.20
2011,04,08,04,48,-1.20
2011,04,08,04,49,-1.20
2011,04,08,04,50,-1.20
2011,04,08,04,51,-1.30
2011,04,08,04,52,-1.30
2011,04,08,04,53,-1.30
2011,04,08,04,54,-1.30
2011,04,08,04,55,-1.30
2011,04,08,04,56,-1.30
2011,04,08,04,57,-1.30
2011,04,08,04,58,-1.30
2011,04,08,04,59,-1.30
2011,04,08,05,00,-1.30
2011,04,08,05,01,-1.30
2011,04,08,05,02,-1.30
2011,04,08,05,03,-1.30
2011,04,08,05,04,-1.30
2011,04,08,05,05,-1.30
2011,04,08,05,06,-1.30
2011,04,08,05,07,-1.30
2011,04,08,05,08,-1.30
2011,04,08,05,09,-1.30
2011,04,08,05,10,-1.30
2011,04,08,05,11,-1.40
2011,04,08,05,12,-1.40
2011,04,08,05,13,-1.40
2011,04,08,05,14,-1.40
2011,04,08,05,15,-1.40
2011,04,08,05,16,-1.40
2011,04,08,05,17,-1.40
2011,04,08,05,18,-1.40
2011,04,08,05,19,-1.40
2011,04,08,05,20,-1.40
2011,04,08,05,21,-1.40
2011,04,08,05,22,-1.40
2011,04,08,05,23,-1.40
2011,04,08,05,24,-1.40
2011,04,08,05,25,-1.40
2011,04,08,05,26,-1.40
2011,04,08,05,27,-1.40
2011,04,08,05,28,-1.40
2011,04,08,05,29,-1.40
2011,04,08,05,30,-1.40
2011,04,08,05,31,-1.40
2011,04,08,05,32,-1.40
2011,04,08,05,33,-1.40
2011,04,08,05,34,-1.50
2011,04,08,05,35,-1.50
2011,04,08,05,36,-1.50
2011,04,08,05,37,-1.60
2011,04,08,05,38,-1.60
2011,04,08,05,39,-1.60
2011,04,08,05,40,-1.60
2011,04,08,05,41,-1.60
2011,04,08,05,42,-1.60
2011,04,08,05,43,-1.60
2011,04,08,05,44,-1.60
2011,04,08,05,45,-1.60
2011,04,08,05,46,-1.60
2011,04,08,05,47,-1.60
2011,04,08,05,48,-1.60
2011,04,08,05,49,-1.60
2011,04,08,05,50,-1.70
2011,04,08,05,51,-1.70
2011,04,08,05,52,-1.70
2011,04,08,05,53,-1.70
2011,04,08,05,54,-1.70
2011,04,08,05,55,-1.60
2011,04,08,05,56,-1.70
2011,04,08,05,57,-1.60
2011,04,08,05,58,-1.60
2011,04,08,05,59,-1.60
2011,04,08,06,00,-1.60
2011,04,08,06,01,-1.60
2011,04,08,06,02,-1.60
2011,04,08,06,03,-1.70
2011,04,08,06,04,-1.70
2011,04,08,06,05,-1.70
2011,04,08,06,06,-1.70
2011,04,08,06,07,-1.70
2011,04,08,06,08,-1.70
2011,04,08,06,09,-1.70
2011,04,08,06,10,-1.70
2011,04,08,06,11,-1.70
2011,04,08,06,12,-1.70
2011,04,08,06,13,-1.70
2011,04,08,06,14,-1.70
2011,04,08,06,15,-1.70
2011,04,08,06,16,-1.70
2011,04,08,06,17,-1.70
2011,04,08,06,18,-1.70
2011,04,08,06,19,-1.70
2011,04,08,06,20,-1.70
2011,04,08,06,21,-1.70
2011,04,08,06,22,-1.70
2011,04,08,06,23,-1.70
2011,04,08,06,24,-1.70
2011,04,08,06,25,-1.70
2011,04,08,06,26,-1.70
2011,04,08,06,27,-1.70
2011,04,08,06,28,-1.70
2011,04,08,06,29,-1.70
2011,04,08,06,30,-1.70
2011,04,08,06,31,-1.70
2011,04,08,06,32,-1.70
2011,04,08,06,33,-1.70
2011,04,08,06,34,-1.70
2011,04,08,06,35,-1.70
2011,04,08,06,36,-1.70
2011,04,08,06,37,-1.70
2011,04,08,06,38,-1.60
2011,04,08,06,39,-1.60
2011,04,08,06,40,-1.60
2011,04,08,06,41,-1.60
2011,04,08,06,42,-1.60
2011,04,08,06,43,-1.60
2011,04,08,06,44,-1.60
2011,04,08,06,45,-1.60
2011,04,08,06,46,-1.60
2011,04,08,06,47,-1.60
2011,04,08,06,48,-1.60
2011,04,08,06,49,-1.60
2011,04,08,06,50,-1.60
2011,04,08,06,51,-1.60
2011,04,08,06,52,-1.60
2011,04,08,06,53,-1.60
2011,04,08,06,54,-1.70
2011,04,08,06,55,-1.70
2011,04,08,06,56,-1.70
2011,04,08,06,57,-1.70
2011,04,08,06,58,-1.70
2011,04,08,06,59,-1.70
2011,04,08,07,00,-1.70
2011,04,08,07,01,-1.70
2011,04,08,07,02,-1.70
2011,04,08,07,03,-1.80
2011,04,08,07,04,-1.80
2011,04,08,07,05,-1.80
2011,04,08,07,06,-1.80
2011,04,08,07,07,-1.80
2011,04,08,07,08,-1.80
2011,04,08,07,09,-1.80
2011,04,08,07,10,-1.80
2011,04,08,07,11,-1.80
2011,04,08,07,12,-1.80
2011,04,08,07,13,-1.80
2011,04,08,07,14,-1.80
2011,04,08,07,15,-1.80
2011,04,08,07,16,-1.80
2011,04,08,07,17,-1.80
2011,04,08,07,18,-1.70
2011,04,08,07,19,-1.70
2011,04,08,07,20,-1.70
2011,04,08,07,21,-1.70
2011,04,08,07,22,-1.70
2011,04,08,07,23,-1.70
2011,04,08,07,24,-1.70
2011,04,08,07,25,-1.70
2011,04,08,07,26,-1.60
2011,04,08,07,27,-1.60
2011,04,08,07,28,-1.60
2011,04,08,07,29,-1.60
2011,04,08,07,30,-1.60
2011,04,08,07,31,-1.60
2011,04,08,07,32,-1.50
2011,04,08,07,33,-1.50
2011,04,08,07,34,-1.50
2011,04,08,07,35,-1.40
2011,04,08,07,36,-1.40
2011,04,08,07,37,-1.40
2011,04,08,07,38,-1.40
2011,04,08,07,39,-1.40
2011,04,08,07,40,-1.30
2011,04,08,07,41,-1.30
2011,04,08,07,42,-1.30
2011,04,08,07,43,-1.30
2011,04,08,07,44,-1.30
2011,04,08,07,45,-1.20
2011,04,08,07,46,-1.20
2011,04,08,07,47,-1.20
2011,04,08,07,48,-1.10
2011,04,08,07,49,-1.10
2011,04,08,07,50,-1.10
2011,04,08,07,51,-1.10
2011,04,08,07,52,-1.10
2011,04,08,07,53,-1.10
2011,04,08,07,54,-1.10
2011,04,08,07,55,-1.20
2011,04,08,07,56,-1.20
2011,04,08,07,57,-1.20
2011,04,08,07,58,-1.10
2011,04,08,07,59,-1.10
2011,04,08,08,00,-1.10
2011,04,08,08,01,-1.10
2011,04,08,08,02,-1.10
2011,04,08,08,03,-1.20
2011,04,08,08,04,-1.20
2011,04,08,08,05,-1.20
2011,04,08,08,06,-1.20
2011,04,08,08,07,-1.20
2011,04,08,08,08,-1.20
2011,04,08,08,09,-1.20
2011,04,08,08,10,-1.20
2011,04,08,08,11,-1.20
2011,04,08,08,12,-1.20
2011,04,08,08,13,-1.20
2011,04,08,08,14,-1.20
2011,04,08,08,15,-1.20
2011,04,08,08,16,-1.20
2011,04,08,08,17,-1.20
2011,04,08,08,18,-1.10
2011,04,08,08,19,-1.10
2011,04,08,08,20,-1.10
2011,04,08,08,21,-1.10
2011,04,08,08,22,-1.10
2011,04,08,08,23,-1.10
2011,04,08,08,24,-1.10
2011,04,08,08,25,-1.00
2011,04,08,08,26,-1.00
2011,04,08,08,27,-1.00
2011,04,08,08,28,-1.00
2011,04,08,08,29,-1.00
2011,04,08,08,30,-0.90
2011,04,08,08,31,-0.90
2011,04,08,08,32,-0.90
2011,04,08,08,33,-0.90
2011,04,08,08,34,-0.90
2011,04,08,08,35,-0.80
2011,04,08,08,36,-0.80
2011,04,08,08,37,-0.80
2011,04,08,08,38,-0.80
2011,04,08,08,39,-0.70
2011,04,08,08,40,-0.70
2011,04,08,08,41,-0.60
2011,04,08,08,42,-0.60
2011,04,08,08,43,-0.50
2011,04,08,08,44,-0.40
2011,04,08,08,45,-0.30
2011,04,08,08,46,-0.20
2011,04,08,08,47,-0.20
2011,04,08,08,48,-0.10
2011,04,08,08,49,-0.10
2011,04,08,08,50,-0.10
2011,04,08,08,51,0.00
2011,04,08,08,52,0.00
2011,04,08,08,53,0.00
2011,04,08,08,54,0.00
2011,04,08,08,55,0.00
2011,04,08,08,56,0.00
2011,04,08,08,57,0.10
2011,04,08,08,58,0.30
2011,04,08,08,59,0.40
2011,04,08,09,00,0.40
2011,04,08,09,01,0.50
2011,04,08,09,02,0.50
2011,04,08,09,03,0.60
2011,04,08,09,04,0.60
2011,04,08,09,05,0.70
2011,04,08,09,06,0.70
2011,04,08,09,07,0.80
2011,04,08,09,08,0.90
2011,04,08,09,09,0.90
2011,04,08,09,10,1.00
2011,04,08,09,11,1.00
2011,04,08,09,12,1.10
2011,04,08,09,13,1.10
2011,04,08,09,14,1.10
2011,04,08,09,15,1.20
2011,04,08,09,16,1.20
2011,04,08,09,17,1.20
2011,04,08,09,18,1.30
2011,04,08,09,19,1.30
2011,04,08,09,20,1.40
2011,04,08,09,21,1.40
2011,04,08,09,22,1.50
2011,04,08,09,23,1.70
2011,04,08,09,24,1.80
2011,04,08,09,25,1.80
2011,04,08,09,26,2.00
2011,04,08,09,27,2.10
2011,04,08,09,28,2.20
2011,04,08,09,29,2.20
2011,04,08,09,30,2.20
2011,04,08,09,31,2.20
2011,04,08,09,32,2.30
2011,04,08,09,33,2.30
2011,04,08,09,34,2.30
2011,04,08,09,35,2.40
2011,04,08,09,36,2.40
2011,04,08,09,37,2.40
2011,04,08,09,38,2.40
2011,04,08,09,39,2.40
2011,04,08,09,40,2.50
2011,04,08,09,41,2.60
2011,04,08,09,42,2.70
2011,04,08,09,43,2.70
2011,04,08,09,44,2.80
2011,04,08,09,45,2.90
2011,04,08,09,46,2.90
2011,04,08,09,47,3.00
2011,04,08,09,48,3.00
2011,04,08,09,49,3.10
2011,04,08,09,50,3.10
2011,04,08,09,51,3.20
2011,04,08,09,52,3.30
2011,04,08,09,53,3.30
2011,04,08,09,54,3.30
2011,04,08,09,55,3.30
2011,04,08,09,56,3.40
2011,04,08,09,57,3.40
2011,04,08,09,58,3.50
2011,04,08,09,59,3.50
2011,04,08,10,00,3.60
2011,04,08,10,01,3.60
2011,04,08,10,02,3.70
2011,04,08,10,03,3.80
2011,04,08,10,04,3.90
2011,04,08,10,05,4.00
2011,04,08,10,06,4.10
2011,04,08,10,07,4.20
2011,04,08,10,08,4.30
2011,04,08,10,09,4.40
2011,04,08,10,10,4.50
2011,04,08,10,11,4.60
2011,04,08,10,12,4.70
2011,04,08,10,13,4.70
2011,04,08,10,14,4.80
2011,04,08,10,15,4.70
2011,04,08,10,16,4.70
2011,04,08,10,17,4.70
2011,04,08,10,18,4.60
2011,04,08,10,19,4.60
2011,04,08,10,20,4.70
2011,04,08,10,21,4.70
2011,04,08,10,22,4.80
2011,04,08,10,23,4.80
2011,04,08,10,24,4.90
2011,04,08,10,25,4.90
2011,04,08,10,26,5.00
2011,04,08,10,27,5.10
2011,04,08,10,28,5.10
2011,04,08,10,29,5.10
2011,04,08,10,30,5.20
2011,04,08,10,31,5.20
2011,04,08,10,32,5.20
2011,04,08,10,33,5.30
2011,04,08,10,34,5.40
2011,04,08,10,35,5.40
2011,04,08,10,36,5.40
2011,04,08,10,37,5.40
2011,04,08,10,38,5.40
2011,04,08,10,39,5.40
2011,04,08,10,40,5.40
2011,04,08,10,41,5.50
2011,04,08,10,42,5.60
2011,04,08,10,43,5.60
2011,04,08,10,44,5.60
2011,04,08,10,45,5.60
2011,04,08,10,46,5.60
2011,04,08,10,47,5.60
2011,04,08,10,48,5.70
2011,04,08,10,49,5.70
2011,04,08,10,50,5.70
2011,04,08,10,51,5.80
2011,04,08,10,52,5.90
2011,04,08,10,53,6.00
2011,04,08,10,54,6.10
2011,04,08,10,55,6.20
2011,04,08,10,56,6.30
2011,04,08,10,57,6.40
2011,04,08,10,58,6.50
2011,04,08,10,59,6.60
2011,04,08,11,00,6.70
2011,04,08,11,01,6.70
2011,04,08,11,02,6.70
2011,04,08,11,03,6.70
2011,04,08,11,04,6.80
2011,04,08,11,05,6.80
2011,04,08,11,06,6.80
2011,04,08,11,07,6.80
2011,04,08,11,08,6.80
2011,04,08,11,09,6.90
2011,04,08,11,10,6.90
2011,04,08,11,11,7.00
2011,04,08,11,12,7.10
2011,04,08,11,13,7.10
2011,04,08,11,14,7.20
2011,04,08,11,15,7.30
2011,04,08,11,16,7.40
2011,04,08,11,17,7.50
2011,04,08,11,18,7.60
2011,04,08,11,19,7.60
2011,04,08,11,20,7.70
2011,04,08,11,21,7.70
2011,04,08,11,22,7.70
2011,04,08,11,23,7.70
2011,04,08,11,24,7.70
2011,04,08,11,25,7.80
2011,04,08,11,26,7.80
2011,04,08,11,27,8.00
2011,04,08,11,28,8.00
2011,04,08,11,29,8.10
2011,04,08,11,30,8.10
2011,04,08,11,31,8.10
2011,04,08,11,32,8.20
2011,04,08,11,33,8.20
2011,04,08,11,34,8.30
2011,04,08,11,35,8.40
2011,04,08,11,36,8.40
2011,04,08,11,37,8.40
2011,04,08,11,38,8.40
2011,04,08,11,39,8.40
2011,04,08,11,40,8.40
2011,04,08,11,41,8.50
2011,04,08,11,42,8.50
2011,04,08,11,43,8.60
2011,04,08,11,44,8.70
2011,04,08,11,45,8.80
2011,04,08,11,46,8.80
2011,04,08,11,47,8.90
2011,04,08,11,48,9.00
2011,04,08,11,49,9.10
2011,04,08,11,50,9.20
2011,04,08,11,51,9.30
2011,04,08,11,52,9.40
2011,04,08,11,53,9.50
2011,04,08,11,54,9.60
2011,04,08,11,55,9.70
2011,04,08,11,56,9.80
2011,04,08,11,57,9.80
2011,04,08,11,58,9.80
2011,04,08,11,59,9.80
2011,04,08,12,00,9.80
2011,04,08,12,01,9.80
2011,04,08,12,02,9.80
2011,04,08,12,03,9.80
2011,04,08,12,04,9.90
2011,04,08,12,05,10.00
2011,04,08,12,06,10.10
2011,04,08,12,07,10.20
2011,04,08,12,08,10.20
2011,04,08,12,09,10.20
2011,04,08,12,10,10.20
2011,04,08,12,11,10.30
2011,04,08,12,12,10.40
2011,04,08,12,13,10.50
2011,04,08,12,14,10.60
2011,04,08,12,15,10.70
2011,04,08,12,16,10.70
2011,04,08,12,17,10.80
2011,04,08,12,18,10.90
2011,04,08,12,19,10.90
2011,04,08,12,20,10.80
2011,04,08,12,21,10.70
2011,04,08,12,22,10.70
2011,04,08,12,23,10.70
2011,04,08,12,24,10.70
2011,04,08,12,25,10.70
2011,04,08,12,26,10.80
2011,04,08,12,27,10.90
2011,04,08,12,28,10.90
2011,04,08,12,29,11.00
2011,04,08,12,30,11.10
2011,04,08,12,31,11.10
2011,04,08,12,32,11.20
2011,04,08,12,33,11.20
2011,04,08,12,34,11.20
2011,04,08,12,35,11.30
2011,04,08,12,36,11.30
2011,04,08,12,37,11.40
2011,04,08,12,38,11.40
2011,04,08,12,39,11.50
2011,04,08,12,40,11.60
2011,04,08,12,41,11.70
2011,04,08,12,42,11.70
2011,04,08,12,43,11.70
2011,04,08,12,44,11.70
2011,04,08,12,45,11.60
2011,04,08,12,46,11.60
2011,04,08,12,47,11.50
2011,04,08,12,48,11.50
2011,04,08,12,49,11.50
2011,04,08,12,50,11.60
2011,04,08,12,51,11.70
2011,04,08,12,52,11.70
2011,04,08,12,53,11.80
2011,04,08,12,54,11.90
2011,04,08,12,55,12.00
2011,04,08,12,56,12.10
2011,04,08,12,57,12.20
2011,04,08,12,58,12.30
2011,04,08,12,59,12.40
2011,04,08,13,00,12.40
2011,04,08,13,01,12.40
2011,04,08,13,02,12.50
2011,04,08,13,03,12.60
2011,04,08,13,04,12.60
2011,04,08,13,05,12.70
2011,04,08,13,06,12.70
2011,04,08,13,07,12.70
2011,04,08,13,08,12.70
2011,04,08,13,09,12.70
2011,04,08,13,10,12.60
2011,04,08,13,11,12.60
2011,04,08,13,12,12.50
2011,04,08,13,13,12.50
2011,04,08,13,14,12.50
2011,04,08,13,15,12.60
2011,04,08,13,16,12.60
2011,04,08,13,17,12.70
2011,04,08,13,18,12.80
2011,04,08,13,19,12.80
2011,04,08,13,20,12.80
2011,04,08,13,21,12.80
2011,04,08,13,22,12.80
2011,04,08,13,23,12.80
2011,04,08,13,24,12.80
2011,04,08,13,25,12.80
2011,04,08,13,26,12.80
2011,04,08,13,27,12.80
2011,04,08,13,28,12.80
2011,04,08,13,29,12.90
2011,04,08,13,30,13.00
2011,04,08,13,31,13.10
2011,04,08,13,32,13.10
2011,04,08,13,33,13.10
2011,04,08,13,34,13.20
2011,04,08,13,35,13.20
2011,04,08,13,36,13.30
2011,04,08,13,37,13.40
2011,04,08,13,38,13.40
2011,04,08,13,39,13.50
2011,04,08,13,40,13.50
2011,04,08,13,41,13.60
2011,04,08,13,42,13.60
2011,04,08,13,43,13.50
2011,04,08,13,44,13.40
2011,04,08,13,45,13.30
2011,04,08,13,46,13.30
2011,04,08,13,47,13.30
2011,04,08,13,48,13.20
2011,04,08,13,49,13.20
2011,04,08,13,50,13.20
2011,04,08,13,51,13.20
2011,04,08,13,52,13.20
2011,04,08,13,53,13.20
2011,04,08,13,54,13.20
2011,04,08,13,55,13.20
2011,04,08,13,56,13.30
2011,04,08,13,57,13.30
2011,04,08,13,58,13.40
2011,04,08,13,59,13.40
2011,04,08,14,00,13.50
2011,04,08,14,01,13.50
2011,04,08,14,02,13.50
2011,04,08,14,03,13.50
2011,04,08,14,04,13.60
2011,04,08,14,05,13.60
2011,04,08,14,06,13.80
2011,04,08,14,07,13.90
2011,04,08,14,08,13.90
2011,04,08,14,09,14.00
2011,04,08,14,10,14.00
2011,04,08,14,11,14.00
2011,04,08,14,12,13.90
2011,04,08,14,13,13.90
2011,04,08,14,14,14.00
2011,04,08,14,15,14.00
2011,04,08,14,16,14.10
2011,04,08,14,17,14.10
2011,04,08,14,18,14.20
2011,04,08,14,19,14.20
2011,04,08,14,20,14.20
2011,04,08,14,21,14.20
2011,04,08,14,22,14.10
2011,04,08,14,23,14.10
2011,04,08,14,24,14.10
2011,04,08,14,25,14.10
2011,04,08,14,26,14.10
2011,04,08,14,27,14.10
2011,04,08,14,28,14.20
2011,04,08,14,29,14.20
2011,04,08,14,30,14.20
2011,04,08,14,31,14.10
2011,04,08,14,32,14.10
2011,04,08,14,33,14.10
2011,04,08,14,34,14.10
2011,04,08,14,35,14.10
2011,04,08,14,36,14.10
2011,04,08,14,37,14.10
2011,04,08,14,38,14.00
2011,04,08,14,39,14.00
2011,04,08,14,40,14.00
2011,04,08,14,41,14.00
2011,04,08,14,42,14.00
2011,04,08,14,43,14.10
2011,04,08,14,44,14.10
2011,04,08,14,45,14.10
2011,04,08,14,46,14.10
2011,04,08,14,47,14.20
2011,04,08,14,48,14.30
2011,04,08,14,49,14.40
2011,04,08,14,50,14.50
2011,04,08,14,51,14.60
2011,04,08,14,52,14.70
2011,04,08,14,53,14.70
2011,04,08,14,54,14.70
2011,04,08,14,55,14.70
2011,04,08,14,56,14.60
2011,04,08,14,57,14.50
2011,04,08,14,58,14.40
2011,04,08,14,59,14.40
2011,04,08,15,00,14.30
2011,04,08,15,01,14.30
2011,04,08,15,02,14.30
2011,04,08,15,03,14.30
2011,04,08,15,04,14.30
2011,04,08,15,05,14.30
2011,04,08,15,06,14.30
2011,04,08,15,07,14.30
2011,04,08,15,08,14.30
2011,04,08,15,09,14.30
2011,04,08,15,10,14.30
2011,04,08,15,11,14.40
2011,04,08,15,12,14.40
2011,04,08,15,13,14.50
2011,04,08,15,14,14.50
2011,04,08,15,15,14.50
2011,04,08,15,16,14.60
2011,04,08,15,17,14.50
2011,04,08,15,18,14.50
2011,04,08,15,19,14.50
2011,04,08,15,20,14.50
2011,04,08,15,21,14.60
2011,04,08,15,22,14.60
2011,04,08,15,23,14.60
2011,04,08,15,24,14.60
2011,04,08,15,25,14.60
2011,04,08,15,26,14.60
2011,04,08,15,27,14.60
2011,04,08,15,28,14.60
2011,04,08,15,29,14.60
2011,04,08,15,30,14.60
2011,04,08,15,31,14.60
2011,04,08,15,32,14.50
2011,04,08,15,33,14.50
2011,04,08,15,34,14.50
2011,04,08,15,35,14.50
2011,04,08,15,36,14.50
2011,04,08,15,37,14.60
2011,04,08,15,38,14.60
2011,04,08,15,39,14.50
2011,04,08,15,40,14.60
2011,04,08,15,41,14.60
2011,04,08,15,42,14.50
2011,04,08,15,43,14.50
2011,04,08,15,44,14.40
2011,04,08,15,45,14.40
2011,04,08,15,46,14.40
2011,04,08,15,47,14.30
2011,04,08,15,48,14.30
2011,04,08,15,49,14.30
2011,04,08,15,50,14.30
2011,04,08,15,51,14.30
2011,04,08,15,52,14.40
2011,04,08,15,53,14.40
2011,04,08,15,54,14.40
2011,04,08,15,55,14.30
2011,04,08,15,56,14.30
2011,04,08,15,57,14.30
2011,04,08,15,58,14.30
2011,04,08,15,59,14.20
2011,04,08,16,00,14.20
2011,04,08,16,01,14.20
2011,04,08,16,02,14.20
2011,04,08,16,03,14.30
2011,04,08,16,04,14.30
2011,04,08,16,05,14.40
2011,04,08,16,06,14.40
2011,04,08,16,07,14.30
2011,04,08,16,08,14.30
2011,04,08,16,09,14.20
2011,04,08,16,10,14.20
2011,04,08,16,11,14.20
2011,04,08,16,12,14.20
2011,04,08,16,13,14.10
2011,04,08,16,14,14.10
2011,04,08,16,15,14.10
2011,04,08,16,16,14.10
2011,04,08,16,17,14.00
2011,04,08,16,18,14.00
2011,04,08,16,19,14.00
2011,04,08,16,20,14.00
2011,04,08,16,21,14.00
2011,04,08,16,22,14.00
2011,04,08,16,23,14.00
2011,04,08,16,24,14.00
2011,04,08,16,25,14.00
2011,04,08,16,26,13.90
2011,04,08,16,27,13.80
2011,04,08,16,28,13.70
2011,04,08,16,29,13.70
2011,04,08,16,30,13.70
2011,04,08,16,31,13.70
2011,04,08,16,32,13.70
2011,04,08,16,33,13.70
2011,04,08,16,34,13.70
2011,04,08,16,35,13.70
2011,04,08,16,36,13.70
2011,04,08,16,37,13.70
2011,04,08,16,38,13.70
2011,04,08,16,39,13.70
2011,04,08,16,40,13.60
2011,04,08,16,41,13.60
2011,04,08,16,42,13.60
2011,04,08,16,43,13.60
2011,04,08,16,44,13.50
2011,04,08,16,45,13.60
2011,04,08,16,46,13.60
2011,04,08,16,47,13.60
2011,04,08,16,48,13.60
2011,04,08,16,49,13.60
2011,04,08,16,50,13.60
2011,04,08,16,51,13.60
2011,04,08,16,52,13.60
2011,04,08,16,53,13.50
2011,04,08,16,54,13.50
2011,04,08,16,55,13.40
2011,04,08,16,56,13.40
2011,04,08,16,57,13.40
2011,04,08,16,58,13.30
2011,04,08,16,59,13.30
2011,04,08,17,00,13.30
2011,04,08,17,01,13.30
2011,04,08,17,02,13.30
2011,04,08,17,03,13.40
2011,04,08,17,04,13.40
2011,04,08,17,05,13.40
2011,04,08,17,06,13.40
2011,04,08,17,07,13.40
2011,04,08,17,08,13.40
2011,04,08,17,09,13.40
2011,04,08,17,10,13.40
2011,04,08,17,11,13.30
2011,04,08,17,12,13.40
2011,04,08,17,13,13.40
2011,04,08,17,14,13.40
2011,04,08,17,15,13.40
2011,04,08,17,16,13.40
2011,04,08,17,17,13.40
2011,04,08,17,18,13.40
2011,04,08,17,19,13.40
2011,04,08,17,20,13.40
2011,04,08,17,21,13.40
2011,04,08,17,22,13.30
2011,04,08,17,23,13.30
2011,04,08,17,24,13.20
2011,04,08,17,25,13.20
2011,04,08,17,26,13.20
2011,04,08,17,27,13.20
2011,04,08,17,28,13.20
2011,04,08,17,29,13.10
2011,04,08,17,30,13.10
2011,04,08,17,31,13.10
2011,04,08,17,32,13.10
2011,04,08,17,33,13.10
2011,04,08,17,34,13.10